Station Historical Data
Daily Summary for March 19, 2017 Units:  Metric    English   Both
« Previous Day
Next Day »
Daily Weekly Monthly Yearly Custom
  High: Low: Average:
Temperature: 4.3 °C -1.1 °C 1.4 °C
Dew Point: -0.2 °C -2.6 °C -0.9 °C
Humidity: 93% 69% 85%
Wind Speed: 12.9km/h 0km/h 3.5km/h
Wind Gust: 19.3km/h - -
Wind- - SE
Pressure: 1027.7 hPa 1020.9 hPa -
Precipitation: 0 mm    
Historical Graphs
 
 
Tabular Data for March 19, 2017
Time Temperature Dew Point Pressure Wind Wind Speed Wind Gust Humidity Rainfall Rate (Hourly)
00:04 0.8 °C -0.3 °C 1020.9 hPa North 1.6 km/h 3.2 km/h 92% 0 mm
00:09 0.8 °C -0.3 °C 1020.9 hPa North 3.2 km/h 4.8 km/h 92% 0 mm
00:14 0.8 °C -0.3 °C 1020.9 hPa North 4.8 km/h 4.8 km/h 92% 0 mm
00:19 0.8 °C -0.3 °C 1020.9 hPa North 3.2 km/h 4.8 km/h 92% 0 mm
00:24 0.8 °C -0.3 °C 1020.9 hPa North 3.2 km/h 4.8 km/h 92% 0 mm
00:29 0.8 °C -0.3 °C 1021.2 hPa NNW 3.2 km/h 4.8 km/h 92% 0 mm
00:34 0.8 °C -0.4 °C 1020.9 hPa NNW 3.2 km/h 3.2 km/h 92% 0 mm
00:39 0.8 °C -0.4 °C 1021.2 hPa North 1.6 km/h 4.8 km/h 92% 0 mm
00:44 0.8 °C -0.4 °C 1021.2 hPa Calm   3.2 km/h 92% 0 mm
00:49 0.8 °C -0.4 °C 1021.2 hPa Calm   1.6 km/h 92% 0 mm
00:54 0.7 °C -0.3 °C 1021.2 hPa Calm   1.6 km/h 93% 0 mm
00:59 0.7 °C -0.3 °C 1021.2 hPa NNW 1.6 km/h 6.4 km/h 93% 0 mm
01:05 0.7 °C -0.3 °C 1021.2 hPa Calm   6.4 km/h 93% 0 mm
01:10 0.8 °C -0.2 °C 1021.2 hPa NNW 1.6 km/h 6.4 km/h 93% 0 mm
01:15 0.7 °C -0.3 °C 1021.2 hPa NNW 1.6 km/h 4.8 km/h 93% 0 mm
01:20 0.7 °C -0.3 °C 1021.2 hPa NNE 1.6 km/h 4.8 km/h 93% 0 mm
01:25 0.7 °C -0.4 °C 1021.2 hPa Calm   3.2 km/h 92% 0 mm
01:30 0.7 °C -0.4 °C 1021.2 hPa NNE 1.6 km/h 4.8 km/h 92% 0 mm
01:35 0.7 °C -0.4 °C 1021.2 hPa NNE 1.6 km/h 4.8 km/h 92% 0 mm
01:45 0.7 °C -0.4 °C 1021.6 hPa Calm     92% 0 mm
01:50 0.7 °C -0.4 °C 1021.6 hPa NNE 4.8 km/h 4.8 km/h 92% 0 mm
01:55 0.7 °C -0.4 °C 1021.6 hPa NNE 1.6 km/h 4.8 km/h 92% 0 mm
02:00 0.7 °C -0.4 °C 1021.6 hPa NNE 3.2 km/h 6.4 km/h 92% 0 mm
02:05 0.7 °C -0.5 °C 1021.6 hPa North 1.6 km/h 6.4 km/h 92% 0 mm
02:10 0.7 °C -0.5 °C 1021.6 hPa NNE 3.2 km/h 6.4 km/h 92% 0 mm
02:15 0.7 °C -0.5 °C 1021.6 hPa NNE 1.6 km/h 4.8 km/h 92% 0 mm
02:20 0.6 °C -0.6 °C 1021.6 hPa NNE 3.2 km/h 4.8 km/h 92% 0 mm
02:25 0.6 °C -0.6 °C 1021.9 hPa NNE 4.8 km/h 8 km/h 92% 0 mm
02:30 0.6 °C -0.6 °C 1021.9 hPa NNE 4.8 km/h 8 km/h 92% 0 mm
02:35 0.6 °C -0.4 °C 1021.9 hPa NNE 4.8 km/h 9.7 km/h 93% 0 mm
02:40 0.6 °C -0.4 °C 1021.9 hPa NE 3.2 km/h 8 km/h 93% 0 mm
02:45 0.5 °C -0.5 °C 1021.9 hPa NNE 3.2 km/h 8 km/h 93% 0 mm
02:50 0.5 °C -0.5 °C 1021.6 hPa NE 4.8 km/h 11.3 km/h 93% 0 mm
02:55 0.4 °C -0.6 °C 1021.9 hPa NE 3.2 km/h 11.3 km/h 93% 0 mm
03:00 0.4 °C -0.6 °C 1021.9 hPa NE 4.8 km/h 11.3 km/h 93% 0 mm
03:05 0.4 °C -0.6 °C 1021.9 hPa NE 4.8 km/h 12.9 km/h 93% 0 mm
03:10 0.4 °C -0.8 °C 1021.9 hPa NE 6.4 km/h 12.9 km/h 92% 0 mm
03:15 0.4 °C -0.8 °C 1021.9 hPa NE 6.4 km/h 14.5 km/h 92% 0 mm
03:20 0.3 °C -0.8 °C 1021.6 hPa NE 6.4 km/h 14.5 km/h 92% 0 mm
03:25 0.3 °C -0.8 °C 1021.6 hPa NE 3.2 km/h 11.3 km/h 92% 0 mm
03:30 0.4 °C -0.8 °C 1021.9 hPa NE 4.8 km/h 11.3 km/h 92% 0 mm
03:35 0.3 °C -0.8 °C 1021.6 hPa NE 4.8 km/h 12.9 km/h 92% 0 mm
03:40 0.3 °C -0.8 °C 1021.6 hPa NNE 4.8 km/h 9.7 km/h 92% 0 mm
03:45 0.3 °C -0.8 °C 1021.6 hPa ENE 4.8 km/h 8 km/h 92% 0 mm
03:50 0.3 °C -0.8 °C 1021.6 hPa NE 6.4 km/h 8 km/h 92% 0 mm
03:55 0.3 °C -0.8 °C 1021.9 hPa Calm   8 km/h 92% 0 mm
04:00 0.3 °C -0.7 °C 1021.9 hPa NE 3.2 km/h 8 km/h 93% 0 mm
04:05 0.3 °C -0.7 °C 1021.9 hPa NE 1.6 km/h 6.4 km/h 93% 0 mm
04:10 0.3 °C -0.8 °C 1021.9 hPa NE 1.6 km/h 6.4 km/h 92% 0 mm
04:15 0.3 °C -0.7 °C 1021.9 hPa NE 3.2 km/h 8 km/h 93% 0 mm
04:20 0.3 °C -0.7 °C 1022.2 hPa NE 3.2 km/h 8 km/h 93% 0 mm
04:25 0.3 °C -0.7 °C 1021.9 hPa NE 4.8 km/h 8 km/h 93% 0 mm
04:30 0.3 °C -0.7 °C 1022.2 hPa NE 3.2 km/h 8 km/h 93% 0 mm
04:35 0.3 °C -0.7 °C 1022.2 hPa NE 1.6 km/h 4.8 km/h 93% 0 mm
04:40 0.3 °C -0.7 °C 1022.2 hPa Calm     93% 0 mm
04:45 0.3 °C -0.7 °C 1022.2 hPa Calm     93% 0 mm
04:50 0.3 °C -0.7 °C 1022.6 hPa Calm     93% 0 mm
04:55 0.3 °C -0.7 °C 1022.6 hPa Calm     93% 0 mm
05:00 0.3 °C -0.7 °C 1022.9 hPa Calm     93% 0 mm
05:05 0.3 °C -0.7 °C 1022.9 hPa Calm   8 km/h 93% 0 mm
05:10 0.3 °C -0.7 °C 1022.9 hPa North 1.6 km/h 8 km/h 93% 0 mm
05:15 0.3 °C -0.7 °C 1023.2 hPa North 1.6 km/h 6.4 km/h 93% 0 mm
05:20 0.3 °C -0.7 °C 1023.2 hPa NNW 4.8 km/h 9.7 km/h 93% 0 mm
05:25 0.3 °C -0.7 °C 1023.2 hPa NW 4.8 km/h 6.4 km/h 93% 0 mm
05:30 0.2 °C -0.8 °C 1023.2 hPa Calm   9.7 km/h 93% 0 mm
05:35 0.2 °C -0.8 °C 1023.2 hPa North 3.2 km/h 9.7 km/h 93% 0 mm
05:40 0.2 °C -0.8 °C 1023.2 hPa North 3.2 km/h 6.4 km/h 93% 0 mm
05:45 0.2 °C -0.8 °C 1023.2 hPa North 3.2 km/h 6.4 km/h 93% 0 mm
05:50 0.2 °C -0.8 °C 1023.2 hPa NE 3.2 km/h 6.4 km/h 93% 0 mm
05:55 0.2 °C -0.8 °C 1023.6 hPa NNE 1.6 km/h 4.8 km/h 93% 0 mm
06:00 0.2 °C -0.8 °C 1023.6 hPa NNW 1.6 km/h 6.4 km/h 93% 0 mm
06:04 0.2 °C -0.8 °C 1023.6 hPa North 3.2 km/h 8 km/h 93% 0 mm
06:10 0.2 °C -0.8 °C 1023.6 hPa North 3.2 km/h 8 km/h 93% 0 mm
06:15 0.1 °C -0.9 °C 1023.9 hPa North 3.2 km/h 8 km/h 93% 0 mm
06:19 0.1 °C -0.9 °C 1023.9 hPa North 4.8 km/h 8 km/h 93% 0 mm
06:25 0.1 °C -0.9 °C 1023.9 hPa NE 1.6 km/h 4.8 km/h 93% 0 mm
06:30 0.1 °C -0.9 °C 1023.9 hPa NNE 3.2 km/h 6.4 km/h 93% 0 mm
06:34 0.1 °C -0.9 °C 1024.3 hPa NNE 3.2 km/h 6.4 km/h 93% 0 mm
06:40 0.1 °C -0.9 °C 1024.3 hPa NNE 3.2 km/h 6.4 km/h 93% 0 mm
06:45 0.1 °C -0.9 °C 1024.6 hPa NE 1.6 km/h 6.4 km/h 93% 0 mm
06:50 0.1 °C -0.9 °C 1024.6 hPa Calm   3.2 km/h 93% 0 mm
06:55 0.2 °C -0.8 °C 1024.6 hPa North 3.2 km/h 4.8 km/h 93% 0 mm
07:00 0.2 °C -0.8 °C 1024.6 hPa NNW 3.2 km/h 4.8 km/h 93% 0 mm
07:04 0.1 °C -0.9 °C 1024.6 hPa NNW 3.2 km/h 4.8 km/h 93% 0 mm
07:09 0.1 °C -0.9 °C 1024.9 hPa North 3.2 km/h 6.4 km/h 93% 0 mm
07:15 0.1 °C -0.9 °C 1024.9 hPa North 3.2 km/h 6.4 km/h 93% 0 mm
07:20 0.1 °C -0.9 °C 1024.9 hPa North 1.6 km/h 4.8 km/h 93% 0 mm
07:25 0.1 °C -0.9 °C 1024.9 hPa NNE 3.2 km/h 6.4 km/h 93% 0 mm
07:30 0.1 °C -0.9 °C 1025.3 hPa NNE 3.2 km/h 6.4 km/h 93% 0 mm
07:34 0.1 °C -0.9 °C 1025.3 hPa North 3.2 km/h 9.7 km/h 93% 0 mm
07:40 0.1 °C -0.9 °C 1025.6 hPa North 6.4 km/h 8 km/h 93% 0 mm
07:44 0.1 °C -1.1 °C 1025.6 hPa North 1.6 km/h 8 km/h 92% 0 mm
07:49 0.1 °C -1.1 °C 1026 hPa North 3.2 km/h 12.9 km/h 92% 0 mm
07:55 0.1 °C -1.1 °C 1026 hPa NNE 4.8 km/h 9.7 km/h 92% 0 mm
08:00 0.1 °C -1.1 °C 1026 hPa North 3.2 km/h 11.3 km/h 92% 0 mm
08:04 0.2 °C -1 °C 1026 hPa North 3.2 km/h 11.3 km/h 92% 0 mm
08:10 0.2 °C -1 °C 1026 hPa North 3.2 km/h 6.4 km/h 92% 0 mm
08:15 0.2 °C -0.9 °C 1026 hPa NNE 4.8 km/h 8 km/h 92% 0 mm
08:20 0.2 °C -0.9 °C 1026.3 hPa NNE 4.8 km/h 11.3 km/h 92% 0 mm
08:25 0.2 °C -0.9 °C 1026.3 hPa North 3.2 km/h 11.3 km/h 92% 0 mm
08:30 0.3 °C -1 °C 1026.3 hPa North 3.2 km/h 6.4 km/h 91% 0 mm
08:34 0.3 °C -1 °C 1026.3 hPa North 4.8 km/h 6.4 km/h 91% 0 mm
08:40 0.3 °C -1 °C 1026.3 hPa North 3.2 km/h 6.4 km/h 91% 0 mm
08:45 0.3 °C -0.9 °C 1026.3 hPa NNE 3.2 km/h 6.4 km/h 91% 0 mm
08:50 0.3 °C -1 °C 1026.3 hPa NNE 4.8 km/h 8 km/h 91% 0 mm
08:54 0.3 °C -1.1 °C 1026.3 hPa North 4.8 km/h 9.7 km/h 90% 0 mm
09:00 0.3 °C -1.1 °C 1026.6 hPa NNE 4.8 km/h 8 km/h 90% 0 mm
09:05 0.4 °C -1.1 °C 1026.6 hPa NNE 3.2 km/h 6.4 km/h 90% 0 mm
09:09 0.4 °C -1 °C 1026.6 hPa NNE 3.2 km/h 8 km/h 90% 0 mm
09:14 0.5 °C -0.9 °C 1026.6 hPa NNE 4.8 km/h 8 km/h 90% 0 mm
09:20 0.5 °C -0.9 °C 1027 hPa NNE 4.8 km/h 8 km/h 90% 0 mm
09:25 0.6 °C -1.1 °C 1027 hPa NNE 4.8 km/h 8 km/h 89% 0 mm
09:30 0.7 °C -0.9 °C 1027 hPa NNE 4.8 km/h 8 km/h 89% 0 mm
09:35 0.7 °C -0.9 °C 1027 hPa NNE 4.8 km/h 9.7 km/h 89% 0 mm
09:39 0.8 °C -0.8 °C 1027 hPa NNE 3.2 km/h 8 km/h 89% 0 mm
09:44 0.9 °C -0.9 °C 1027 hPa NNE 4.8 km/h 8 km/h 88% 0 mm
09:49 0.9 °C -0.8 °C 1027.3 hPa NNE 4.8 km/h 8 km/h 88% 0 mm
09:54 1 °C -0.9 °C 1027.3 hPa NNE 3.2 km/h 12.9 km/h 87% 0 mm
10:00 1.1 °C -0.8 °C 1027.3 hPa North 4.8 km/h 9.7 km/h 87% 0 mm
10:05 1.2 °C -0.8 °C 1027.3 hPa NNE 4.8 km/h 9.7 km/h 87% 0 mm
10:09 1.2 °C -0.9 °C 1027.3 hPa NNE 4.8 km/h 8 km/h 86% 0 mm
10:15 1.3 °C -0.8 °C 1027.3 hPa North 4.8 km/h 8 km/h 86% 0 mm
10:20 1.3 °C -0.8 °C 1027.3 hPa NNE 4.8 km/h 11.3 km/h 86% 0 mm
10:24 1.3 °C -0.8 °C 1027.3 hPa NNE 4.8 km/h 11.3 km/h 86% 0 mm
10:30 1.4 °C -0.7 °C 1027.3 hPa NNE 4.8 km/h 9.7 km/h 86% 0 mm
10:35 1.5 °C -0.6 °C 1027.7 hPa NNE 4.8 km/h 9.7 km/h 86% 0 mm
10:39 1.5 °C -0.7 °C 1027.3 hPa North 4.8 km/h 8 km/h 85% 0 mm
10:44 1.7 °C -0.6 °C 1027.7 hPa NNE 4.8 km/h 9.7 km/h 85% 0 mm
10:49 1.7 °C -0.7 °C 1027.7 hPa NNE 3.2 km/h 11.3 km/h 84% 0 mm
10:54 1.8 °C -0.7 °C 1027.7 hPa NNE 3.2 km/h 11.3 km/h 83% 0 mm
10:59 1.8 °C -0.7 °C 1027.7 hPa NNE 4.8 km/h 9.7 km/h 83% 0 mm
11:04 1.9 °C -0.7 °C 1027.3 hPa NNE 4.8 km/h 8 km/h 83% 0 mm
11:10 2.1 °C -0.5 °C 1027.3 hPa NE 3.2 km/h 8 km/h 83% 0 mm
11:14 2.4 °C -0.3 °C 1027.3 hPa NE 6.4 km/h 14.5 km/h 82% 0 mm
11:20 2.7 °C -0.4 °C 1027.3 hPa NE 6.4 km/h 14.5 km/h 80% 0 mm
11:24 2.6 °C -0.5 °C 1027.3 hPa NE 6.4 km/h 16.1 km/h 80% 0 mm
11:30 2.7 °C -0.6 °C 1027.3 hPa NE 8 km/h 16.1 km/h 79% 0 mm
11:35 2.7 °C -0.6 °C 1027.3 hPa NE 6.4 km/h 14.5 km/h 79% 0 mm
11:40 2.7 °C -0.6 °C 1027 hPa NE 6.4 km/h 12.9 km/h 79% 0 mm
11:44 2.8 °C -0.7 °C 1027.3 hPa NNE 4.8 km/h 12.9 km/h 78% 0 mm
11:49 2.8 °C -0.7 °C 1027.3 hPa NE 6.4 km/h 19.3 km/h 78% 0 mm
11:54 2.7 °C -0.7 °C 1027.3 hPa ENE 6.4 km/h 12.9 km/h 78% 0 mm
12:00 3 °C -0.4 °C 1027 hPa NNE 6.4 km/h 11.3 km/h 78% 0 mm
12:04 3.4 °C -0.4 °C 1027 hPa East 1.6 km/h 11.3 km/h 76% 0 mm
12:09 3.4 °C -0.6 °C 1027 hPa NE 1.6 km/h 12.9 km/h 75% 0 mm
12:14 3.4 °C -0.6 °C 1027 hPa NE 6.4 km/h 8 km/h 75% 0 mm
12:19 3.2 °C -0.7 °C 1027 hPa NE 6.4 km/h 12.9 km/h 76% 0 mm
12:24 3.1 °C -0.8 °C 1027.3 hPa NNE 6.4 km/h 12.9 km/h 76% 0 mm
12:29 3.1 °C -0.8 °C 1027.3 hPa NNE 6.4 km/h 9.7 km/h 76% 0 mm
12:34 3.2 °C -0.6 °C 1027.3 hPa NNE 6.4 km/h 11.3 km/h 76% 0 mm
12:39 3.3 °C -0.6 °C 1027 hPa NNE 4.8 km/h 9.7 km/h 76% 0 mm
12:44 3.4 °C -0.6 °C 1027 hPa NE 4.8 km/h 8 km/h 75% 0 mm
12:49 3.5 °C -0.5 °C 1027 hPa NNE 4.8 km/h 14.5 km/h 75% 0 mm
12:54 3.5 °C -0.5 °C 1027 hPa NE 6.4 km/h 14.5 km/h 75% 0 mm
13:00 3.5 °C -0.7 °C 1027 hPa NNE 4.8 km/h 12.9 km/h 74% 0 mm
13:04 3.6 °C -0.7 °C 1027 hPa NNE 4.8 km/h 9.7 km/h 74% 0 mm
13:09 3.5 °C -0.7 °C 1027 hPa NE 3.2 km/h 11.3 km/h 74% 0 mm
13:15 3.6 °C -0.6 °C 1027 hPa NNE 3.2 km/h 12.9 km/h 74% 0 mm
13:20 3.8 °C -0.8 °C 1027 hPa NE 4.8 km/h 12.9 km/h 72% 0 mm
13:25 3.8 °C -0.8 °C 1027 hPa NE 4.8 km/h 9.7 km/h 72% 0 mm
13:29 3.8 °C -0.8 °C 1027 hPa ENE 3.2 km/h 8 km/h 72% 0 mm
13:35 3.7 °C -0.7 °C 1027.3 hPa ENE 3.2 km/h 8 km/h 73% 0 mm
13:39 3.6 °C -0.8 °C 1027.3 hPa NE 3.2 km/h 8 km/h 73% 0 mm
13:44 3.6 °C -0.8 °C 1027 hPa NE 3.2 km/h 12.9 km/h 73% 0 mm
13:49 3.6 °C -0.8 °C 1027 hPa NE 3.2 km/h 11.3 km/h 73% 0 mm
13:54 3.6 °C -0.9 °C 1027 hPa Calm   6.4 km/h 72% 0 mm
13:59 3.7 °C -0.9 °C 1027 hPa NNE 1.6 km/h 9.7 km/h 72% 0 mm
14:04 3.8 °C -0.8 °C 1027 hPa NE 3.2 km/h 9.7 km/h 72% 0 mm
14:09 3.9 °C -0.8 °C 1027 hPa NNE 3.2 km/h 8 km/h 71% 0 mm
14:14 3.9 °C -0.8 °C 1027 hPa NNE 1.6 km/h 6.4 km/h 71% 0 mm
14:19 3.9 °C -0.7 °C 1027 hPa NW 1.6 km/h 8 km/h 72% 0 mm
14:24 3.9 °C -0.8 °C 1027 hPa NNW 1.6 km/h 8 km/h 71% 0 mm
14:30 3.9 °C -1.1 °C 1026.6 hPa North 3.2 km/h 8 km/h 70% 0 mm
14:34 4 °C -1 °C 1026.6 hPa NNE 3.2 km/h 6.4 km/h 70% 0 mm
14:39 4 °C -0.8 °C 1026.6 hPa NE 3.2 km/h 8 km/h 71% 0 mm
14:44 4.1 °C -0.9 °C 1026.6 hPa NNE 3.2 km/h 8 km/h 70% 0 mm
14:49 4.2 °C -0.8 °C 1026.6 hPa NW 3.2 km/h 6.4 km/h 70% 0 mm
14:55 4.1 °C -1.1 °C 1026.6 hPa NW 3.2 km/h 8 km/h 69% 0 mm
14:59 4.1 °C -1.1 °C 1026.6 hPa Calm     69% 0 mm
15:04 4.2 °C -0.8 °C 1026.6 hPa Calm   6.4 km/h 70% 0 mm
15:09 4.1 °C -1.1 °C 1026.6 hPa NE 1.6 km/h 8 km/h 69% 0 mm
15:14 4.3 °C -0.7 °C 1026.6 hPa NNW 4.8 km/h 6.4 km/h 70% 0 mm
15:19 4.1 °C -0.9 °C 1026.6 hPa West 1.6 km/h 6.4 km/h 70% 0 mm
15:24 4.2 °C -0.8 °C 1026.6 hPa WNW 3.2 km/h 4.8 km/h 70% 0 mm
15:29 4.2 °C -0.8 °C 1026.6 hPa NNW 3.2 km/h 8 km/h 70% 0 mm
15:34 4.3 °C -0.7 °C 1026.6 hPa WNW 3.2 km/h 6.4 km/h 70% 0 mm
15:39 4.2 °C -0.8 °C 1026.6 hPa WNW 3.2 km/h 6.4 km/h 70% 0 mm
15:44 4.2 °C -1 °C 1026.6 hPa WNW 4.8 km/h 11.3 km/h 69% 0 mm
15:49 4.2 °C -0.8 °C 1026.6 hPa WNW 4.8 km/h 11.3 km/h 70% 0 mm
15:54 4.1 °C -0.9 °C 1026.6 hPa WNW 3.2 km/h 9.7 km/h 70% 0 mm
16:00 4.1 °C -0.9 °C 1026.6 hPa WNW 4.8 km/h 11.3 km/h 70% 0 mm
16:05 4.2 °C -0.8 °C 1026.6 hPa WNW 3.2 km/h 11.3 km/h 70% 0 mm
16:10 4.2 °C -0.8 °C 1026.3 hPa West 8 km/h 9.7 km/h 70% 0 mm
16:14 4.1 °C -0.9 °C 1026.3 hPa West 4.8 km/h 11.3 km/h 70% 0 mm
16:19 4.1 °C -0.9 °C 1026.3 hPa WNW 3.2 km/h 6.4 km/h 70% 0 mm
16:24 4.2 °C -0.8 °C 1026.3 hPa West 4.8 km/h 4.8 km/h 70% 0 mm
16:29 4.1 °C -1.1 °C 1026.6 hPa West 1.6 km/h 9.7 km/h 69% 0 mm
16:34 4.1 °C -0.9 °C 1026.3 hPa NW 3.2 km/h 9.7 km/h 70% 0 mm
16:39 4.1 °C -1.1 °C 1026.3 hPa Calm   6.4 km/h 69% 0 mm
16:44 4 °C -1 °C 1026.3 hPa West 4.8 km/h 9.7 km/h 70% 0 mm
16:49 4 °C -0.8 °C 1026.3 hPa West 4.8 km/h 9.7 km/h 71% 0 mm
16:54 4 °C -0.8 °C 1026.3 hPa West 4.8 km/h 9.7 km/h 71% 0 mm
16:59 3.6 °C -0.9 °C 1026.3 hPa West 4.8 km/h 9.7 km/h 72% 0 mm
17:04 3.4 °C -0.8 °C 1026.3 hPa West 3.2 km/h 9.7 km/h 74% 0 mm
17:09 3.2 °C -0.8 °C 1026.3 hPa SW 12.9 km/h 12.9 km/h 75% 0 mm
17:14 3.1 °C -0.8 °C 1026.3 hPa WSW 6.4 km/h 12.9 km/h 76% 0 mm
17:19 2.9 °C -0.7 °C 1026.3 hPa WSW 6.4 km/h 12.9 km/h 77% 0 mm
17:24 2.9 °C -0.7 °C 1026.3 hPa SSW 4.8 km/h 12.9 km/h 77% 0 mm
17:29 2.8 °C -0.6 °C 1026.3 hPa SW 6.4 km/h 11.3 km/h 78% 0 mm
17:34 2.8 °C -0.5 °C 1026.3 hPa SSW 4.8 km/h 12.9 km/h 79% 0 mm
17:39 2.7 °C -0.6 °C 1026.3 hPa SW 9.7 km/h 9.7 km/h 79% 0 mm
17:44 2.8 °C -0.5 °C 1026.3 hPa SW 4.8 km/h 9.7 km/h 79% 0 mm
17:49 2.8 °C -0.4 °C 1026.3 hPa SW 4.8 km/h 9.7 km/h 79% 0 mm
17:54 2.8 °C -0.4 °C 1026 hPa SW 4.8 km/h 8 km/h 79% 0 mm
17:59 2.9 °C -0.4 °C 1026.3 hPa WSW 3.2 km/h 6.4 km/h 79% 0 mm
18:05 2.9 °C -0.4 °C 1026.3 hPa SW 3.2 km/h 6.4 km/h 79% 0 mm
18:09 2.8 °C -0.4 °C 1026.3 hPa WSW 6.4 km/h 9.7 km/h 79% 0 mm
18:14 2.7 °C -0.6 °C 1026.3 hPa SW 1.6 km/h 6.4 km/h 79% 0 mm
18:19 2.8 °C -0.5 °C 1026.3 hPa SW 3.2 km/h 6.4 km/h 79% 0 mm
18:24 2.9 °C -0.6 °C 1026.3 hPa SW 4.8 km/h 11.3 km/h 78% 0 mm
18:29 2.8 °C -0.6 °C 1026.3 hPa SW 3.2 km/h 11.3 km/h 78% 0 mm
18:34 2.8 °C -0.8 °C 1026.3 hPa SW 4.8 km/h 11.3 km/h 77% 0 mm
18:39 2.8 °C -0.8 °C 1026.3 hPa WSW 4.8 km/h 8 km/h 77% 0 mm
18:44 2.7 °C -0.8 °C 1026.3 hPa SW 4.8 km/h 8 km/h 78% 0 mm
18:49 2.4 °C -0.8 °C 1026.3 hPa SW 4.8 km/h 8 km/h 79% 0 mm
18:54 2.3 °C -0.8 °C 1026.3 hPa SSW 3.2 km/h 8 km/h 80% 0 mm
18:59 2.3 °C -0.8 °C 1026.3 hPa WSW 4.8 km/h 8 km/h 80% 0 mm
19:04 2.2 °C -0.9 °C 1026.3 hPa SW 1.6 km/h 9.7 km/h 80% 0 mm
19:09 2.1 °C -1 °C 1026.3 hPa WSW 6.4 km/h 9.7 km/h 80% 0 mm
19:14 2.1 °C -1 °C 1026.6 hPa SSW 3.2 km/h 8 km/h 80% 0 mm
19:19 2.1 °C -1.1 °C 1026.6 hPa WSW 4.8 km/h 11.3 km/h 80% 0 mm
19:24 2 °C -1.1 °C 1026.6 hPa SW 6.4 km/h 11.3 km/h 80% 0 mm
19:29 1.9 °C -1.2 °C 1026.6 hPa SW 4.8 km/h 9.7 km/h 80% 0 mm
19:34 1.8 °C -1.1 °C 1026.6 hPa SW 4.8 km/h 9.7 km/h 81% 0 mm
19:39 1.7 °C -1.3 °C 1026.6 hPa SW 3.2 km/h 8 km/h 80% 0 mm
19:44 1.6 °C -1.3 °C 1026.3 hPa Calm   4.8 km/h 81% 0 mm
19:49 1.4 °C -1.3 °C 1026.3 hPa SW 1.6 km/h 4.8 km/h 82% 0 mm
19:59 1.1 °C -1.4 °C 1026.3 hPa SW 3.2 km/h 6.4 km/h 83% 0 mm
20:04 1.1 °C -1.5 °C 1026.3 hPa SW 4.8 km/h 6.4 km/h 83% 0 mm
20:09 1 °C -1.6 °C 1026.3 hPa WSW 4.8 km/h 8 km/h 83% 0 mm
20:14 0.8 °C -1.6 °C 1026.3 hPa SW 6.4 km/h 8 km/h 84% 0 mm
20:19 0.8 °C -1.6 °C 1026.3 hPa South 3.2 km/h 9.7 km/h 84% 0 mm
20:24 0.8 °C -1.6 °C 1026.3 hPa SW 3.2 km/h 9.7 km/h 84% 0 mm
20:29 0.7 °C -1.7 °C 1026.3 hPa SW 3.2 km/h 6.4 km/h 84% 0 mm
20:34 0.6 °C -1.7 °C 1026.3 hPa SW 3.2 km/h 6.4 km/h 85% 0 mm
20:39 0.4 °C -1.8 °C 1026.3 hPa SSW 3.2 km/h 6.4 km/h 85% 0 mm
20:44 0.3 °C -1.8 °C 1026.3 hPa SW 4.8 km/h 4.8 km/h 86% 0 mm
20:49 0.2 °C -1.8 °C 1026.3 hPa Calm   4.8 km/h 86% 0 mm
20:54 0.1 °C -1.9 °C 1026.3 hPa SW 1.6 km/h 4.8 km/h 86% 0 mm
20:59 -0.1 °C -2.1 °C 1026.6 hPa SW 1.6 km/h 4.8 km/h 86% 0 mm
21:04 -0.2 °C -2.1 °C 1026.3 hPa SW 1.6 km/h 4.8 km/h 87% 0 mm
21:09 -0.1 °C -2 °C 1026.3 hPa SW 3.2 km/h 4.8 km/h 87% 0 mm
21:14 -0.1 °C -2 °C 1026.6 hPa SW 3.2 km/h 6.4 km/h 87% 0 mm
21:19 -0.2 °C -1.9 °C 1026.6 hPa SW 1.6 km/h 4.8 km/h 88% 0 mm
21:24 -0.2 °C -1.9 °C 1026.6 hPa SW 1.6 km/h 4.8 km/h 88% 0 mm
21:29 -0.2 °C -1.9 °C 1026.6 hPa SW 1.6 km/h 4.8 km/h 88% 0 mm
21:34 -0.3 °C -2.1 °C 1026.6 hPa SW 1.6 km/h 4.8 km/h 88% 0 mm
21:39 -0.4 °C -2.1 °C 1026.6 hPa SW 1.6 km/h 4.8 km/h 88% 0 mm
21:44 -0.4 °C -2.1 °C 1026.6 hPa SW 1.6 km/h 3.2 km/h 88% 0 mm
21:49 -0.2 °C -1.9 °C 1026.6 hPa SW 3.2 km/h 9.7 km/h 88% 0 mm
21:54 -0.2 °C -1.8 °C 1026.6 hPa SSW 1.6 km/h 6.4 km/h 89% 0 mm
22:04 -0.2 °C -1.8 °C 1026.6 hPa SW 4.8 km/h 9.7 km/h 89% 0 mm
22:09 -0.2 °C -1.8 °C 1026.6 hPa SW 3.2 km/h 9.7 km/h 89% 0 mm
22:14 -0.2 °C -1.8 °C 1026.6 hPa SW 4.8 km/h 9.7 km/h 89% 0 mm
22:19 -0.3 °C -2 °C 1026.3 hPa WSW 4.8 km/h 9.7 km/h 88% 0 mm
22:24 -0.3 °C -2.1 °C 1026.3 hPa SW 3.2 km/h 9.7 km/h 88% 0 mm
22:29 -0.3 °C -2.1 °C 1026.3 hPa SW 4.8 km/h 9.7 km/h 88% 0 mm
22:34 -0.4 °C -2.2 °C 1026.3 hPa SW 3.2 km/h 8 km/h 88% 0 mm
22:39 -0.5 °C -2.2 °C 1026.3 hPa SW 3.2 km/h 6.4 km/h 88% 0 mm
22:44 -0.6 °C -2.3 °C 1026.3 hPa SW 3.2 km/h 6.4 km/h 88% 0 mm
22:49 -0.6 °C -2.3 °C 1026.3 hPa SW 3.2 km/h 4.8 km/h 88% 0 mm
22:54 -0.8 °C -2.5 °C 1026.3 hPa SW 3.2 km/h 3.2 km/h 88% 0 mm
22:59 -0.8 °C -2.4 °C 1026.3 hPa WSW 1.6 km/h 4.8 km/h 89% 0 mm
23:04 -0.9 °C -2.5 °C 1026.3 hPa WSW 1.6 km/h 4.8 km/h 89% 0 mm
23:09 -0.9 °C -2.6 °C 1026.3 hPa WSW 1.6 km/h 4.8 km/h 89% 0 mm
23:14 -0.9 °C -2.6 °C 1026.3 hPa SW 1.6 km/h 4.8 km/h 89% 0 mm
23:19 -0.9 °C -2.5 °C 1026.3 hPa SW 1.6 km/h 4.8 km/h 89% 0 mm
23:24 -1 °C -2.6 °C 1026.3 hPa Calm   4.8 km/h 89% 0 mm
23:29 -1 °C -2.6 °C 1026.3 hPa Calm   3.2 km/h 89% 0 mm
23:34 -1 °C -2.6 °C 1026.3 hPa SW 3.2 km/h 3.2 km/h 89% 0 mm
23:39 -1.1 °C -2.6 °C 1026.3 hPa SW 1.6 km/h 4.8 km/h 89% 0 mm
23:44 -1.1 °C -2.6 °C 1026.3 hPa SW 1.6 km/h 4.8 km/h 89% 0 mm
23:49 -1.1 °C -2.6 °C 1026.3 hPa WSW 1.6 km/h 4.8 km/h 90% 0 mm
23:54 -1.1 °C -2.6 °C 1026 hPa SW 1.6 km/h 4.8 km/h 90% 0 mm
23:59 -1.1 °C -2.5 °C 1026 hPa Calm   3.2 km/h 90% 0 mm
Buffalo, New York, USA
Compliments of Weather Underground - 2.5 mb